Time,TemperatureF,DewpointF,PressureIn,WindDirection,WindDirectionDegrees,WindSpeedMPH,WindSpeedGustMPH,Humidity,HourlyPrecipIn,Conditions,Clouds,dailyrainin,SoftwareType,DateUTC
2013-04-06 00:02:00,57.0,37.0,-100.00,SSE,150,11.0,17.0,47,0.00,,,-99.99,,2013-04-06 05:02:00,
2013-04-06 00:13:00,57.0,37.0,-100.00,SSE,150,12.0,17.0,47,0.00,,,-99.99,,2013-04-06 05:13:00,
2013-04-06 00:22:00,57.0,37.0,-100.00,SSE,150,12.0,17.0,47,0.00,,,-99.99,,2013-04-06 05:22:00,
2013-04-06 00:32:00,56.0,37.0,-100.00,SSE,155,11.0,18.0,48,0.00,,,-99.99,,2013-04-06 05:32:00,
2013-04-06 00:42:00,56.0,37.0,-100.00,SE,145,12.0,20.0,48,0.00,,,-99.99,,2013-04-06 05:42:00,
2013-04-06 00:52:00,56.0,37.0,-100.00,SE,145,11.0,17.0,48,0.00,,,-99.99,,2013-04-06 05:52:00,
2013-04-06 01:02:00,56.0,37.0,-100.00,SE,145,11.0,17.0,48,0.00,,,-99.99,,2013-04-06 06:02:00,
2013-04-06 01:12:00,56.0,37.0,-100.00,SSE,160,10.0,16.0,49,0.00,,,-99.99,,2013-04-06 06:12:00,
2013-04-06 01:22:00,56.0,38.0,-100.00,SSE,160,11.0,17.0,49,0.00,,,-99.99,,2013-04-06 06:22:00,
2013-04-06 01:32:00,56.0,38.0,-100.00,SSE,150,13.0,20.0,49,0.00,,,-99.99,,2013-04-06 06:32:00,
2013-04-06 01:42:00,56.0,38.0,-100.00,SSE,150,13.0,20.0,49,0.00,,,-99.99,,2013-04-06 06:42:00,
2013-04-06 01:52:00,56.0,38.0,-100.00,SSE,160,13.0,19.0,50,0.00,,,-99.99,,2013-04-06 06:52:00,
2013-04-06 02:03:00,56.0,38.0,-100.00,SE,145,10.0,17.0,50,0.00,,,-99.99,,2013-04-06 07:03:00,
2013-04-06 02:12:00,56.0,38.0,-100.00,SSE,160,13.0,20.0,50,0.00,,,-99.99,,2013-04-06 07:12:00,
2013-04-06 02:22:00,56.0,38.0,-100.00,SSE,160,13.0,20.0,50,0.00,,,-99.99,,2013-04-06 07:22:00,
2013-04-06 02:33:00,55.0,38.0,-100.00,SSE,155,11.0,17.0,51,0.00,,,-99.99,,2013-04-06 07:33:00,
2013-04-06 02:43:00,55.0,38.0,-100.00,SSE,160,16.0,22.0,51,0.00,,,-99.99,,2013-04-06 07:43:00,
2013-04-06 02:52:00,56.0,38.0,-100.00,South,170,13.0,22.0,51,0.00,,,-99.99,,2013-04-06 07:52:00,
2013-04-06 03:02:00,56.0,38.0,-100.00,South,170,13.0,22.0,51,0.00,,,-99.99,,2013-04-06 08:02:00,
2013-04-06 03:12:00,56.0,38.0,-100.00,SSE,165,11.0,20.0,51,0.00,,,-99.99,,2013-04-06 08:12:00,
2013-04-06 03:22:00,56.0,38.0,-100.00,SSE,155,11.0,19.0,50,0.00,,,-99.99,,2013-04-06 08:22:00,
2013-04-06 03:32:00,56.0,38.0,-100.00,SSE,165,15.0,22.0,49,0.00,,,-99.99,,2013-04-06 08:32:00,
2013-04-06 03:42:00,56.0,38.0,-100.00,SSE,165,15.0,22.0,49,0.00,,,-99.99,,2013-04-06 08:42:00,
2013-04-06 03:52:00,57.0,38.0,-100.00,SSE,165,13.0,22.0,48,0.00,,,-99.99,,2013-04-06 08:52:00,
2013-04-06 04:02:00,56.0,37.0,-100.00,SSE,165,14.0,21.0,47,0.00,,,-99.99,,2013-04-06 09:02:00,
2013-04-06 04:12:00,56.0,37.0,-100.00,SSE,165,14.0,21.0,47,0.00,,,-99.99,,2013-04-06 09:12:00,
2013-04-06 04:22:00,57.0,37.0,-100.00,South,170,14.0,20.0,47,0.00,,,-99.99,,2013-04-06 09:22:00,
2013-04-06 04:32:00,56.0,37.0,-100.00,South,175,11.0,21.0,48,0.00,,,-99.99,,2013-04-06 09:32:00,
2013-04-06 04:43:00,56.0,37.0,-100.00,South,180,11.0,20.0,48,0.00,,,-99.99,,2013-04-06 09:43:00,
2013-04-06 04:53:00,56.0,37.0,-100.00,SSE,165,11.0,22.0,48,0.00,,,-99.99,,2013-04-06 09:53:00,
2013-04-06 05:03:00,56.0,37.0,-100.00,SSE,165,11.0,22.0,48,0.00,,,-99.99,,2013-04-06 10:03:00,
2013-04-06 05:13:00,55.0,36.0,-100.00,SSE,150,12.0,19.0,49,0.00,,,-99.99,,2013-04-06 10:13:00,
2013-04-06 05:22:00,55.0,36.0,-100.00,SSE,165,13.0,19.0,50,0.00,,,-99.99,,2013-04-06 10:22:00,
2013-04-06 05:33:00,55.0,36.0,-100.00,SSE,165,13.0,19.0,50,0.00,,,-99.99,,2013-04-06 10:33:00,
2013-04-06 05:42:00,54.0,36.0,-100.00,South,175,12.0,21.0,51,0.00,,,-99.99,,2013-04-06 10:42:00,
2013-04-06 05:52:00,54.0,36.0,-100.00,South,180,11.0,20.0,51,0.00,,,-99.99,,2013-04-06 10:52:00,
2013-04-06 06:02:00,54.0,36.0,-100.00,South,180,11.0,20.0,51,0.00,,,-99.99,,2013-04-06 11:02:00,
2013-04-06 06:12:00,54.0,36.0,-100.00,South,170,11.0,20.0,51,0.00,,,-99.99,,2013-04-06 11:12:00,
2013-04-06 06:22:00,53.0,36.0,-100.00,SSE,165,9.0,19.0,51,0.00,,,-99.99,,2013-04-06 11:22:00,
2013-04-06 06:33:00,53.0,36.0,-100.00,South,170,11.0,17.0,51,0.00,,,-99.99,,2013-04-06 11:33:00,
2013-04-06 06:43:00,53.0,36.0,-100.00,South,170,11.0,17.0,51,0.00,,,-99.99,,2013-04-06 11:43:00,
2013-04-06 06:52:00,52.0,35.0,-100.00,South,180,14.0,20.0,52,0.00,,,-99.99,,2013-04-06 11:52:00,
2013-04-06 07:02:00,52.0,35.0,-100.00,South,180,14.0,20.0,52,0.00,,,-99.99,,2013-04-06 12:02:00,
2013-04-06 07:12:00,52.0,35.0,-100.00,South,185,11.0,21.0,52,0.00,,,-99.99,,2013-04-06 12:12:00,
2013-04-06 07:22:00,52.0,35.0,-100.00,South,185,11.0,21.0,52,0.00,,,-99.99,,2013-04-06 12:22:00,
2013-04-06 07:32:00,52.0,36.0,-100.00,South,185,10.0,17.0,53,0.00,,,-99.99,,2013-04-06 12:32:00,
2013-04-06 07:43:00,52.0,36.0,-100.00,South,175,12.0,17.0,53,0.00,,,-99.99,,2013-04-06 12:43:00,
2013-04-06 07:52:00,53.0,36.0,-100.00,South,180,12.0,19.0,52,0.00,,,-99.99,,2013-04-06 12:52:00,
2013-04-06 08:02:00,53.0,36.0,-100.00,South,180,12.0,19.0,52,0.00,,,-99.99,,2013-04-06 13:02:00,
2013-04-06 08:12:00,54.0,36.0,-100.00,South,175,14.0,21.0,50,0.00,,,-99.99,,2013-04-06 13:12:00,
2013-04-06 08:23:00,55.0,36.0,-100.00,South,170,12.0,22.0,49,0.00,,,-99.99,,2013-04-06 13:23:00,
2013-04-06 08:32:00,55.0,36.0,-100.00,South,175,13.0,26.0,48,0.00,,,-99.99,,2013-04-06 13:32:00,
2013-04-06 08:42:00,55.0,36.0,-100.00,South,175,13.0,26.0,48,0.00,,,-99.99,,2013-04-06 13:42:00,
2013-04-06 08:52:00,56.0,37.0,-100.00,SSW,195,12.0,24.0,48,0.08,,,-99.99,,2013-04-06 13:52:00,
2013-04-06 09:04:00,56.0,37.0,-100.00,South,175,14.0,22.0,48,0.00,,,-99.99,,2013-04-06 14:04:00,
2013-04-06 09:12:00,56.0,37.0,-100.00,South,175,14.0,22.0,48,0.00,,,-99.99,,2013-04-06 14:12:00,
2013-04-06 09:22:00,56.0,37.0,-100.00,SSW,195,13.0,24.0,49,0.00,,,-99.99,,2013-04-06 14:22:00,
2013-04-06 09:32:00,56.0,37.0,-100.00,South,180,11.0,24.0,49,0.00,,,-99.99,,2013-04-06 14:32:00,
2013-04-06 09:42:00,56.0,37.0,-100.00,South,180,11.0,24.0,49,0.00,,,-99.99,,2013-04-06 14:42:00,
2013-04-06 09:53:00,57.0,38.0,-100.00,South,180,16.0,25.0,48,0.00,,,-99.99,,2013-04-06 14:53:00,
2013-04-06 10:02:00,58.0,38.0,-100.00,South,190,16.0,22.0,48,0.00,,,-99.99,,2013-04-06 15:02:00,
2013-04-06 10:12:00,58.0,38.0,-100.00,South,190,16.0,22.0,48,0.00,,,-99.99,,2013-04-06 15:12:00,
2013-04-06 10:23:00,58.0,39.0,-100.00,South,190,13.0,28.0,48,0.00,,,-99.99,,2013-04-06 15:23:00,
2013-04-06 10:33:00,59.0,40.0,-100.00,South,180,12.0,25.0,48,0.00,,,-99.99,,2013-04-06 15:33:00,
2013-04-06 10:43:00,61.0,41.0,-100.00,SSW,195,14.0,23.0,47,0.00,,,-99.99,,2013-04-06 15:43:00,
2013-04-06 10:53:00,60.0,40.0,-100.00,SSW,195,15.0,28.0,47,0.00,,,-99.99,,2013-04-06 15:53:00,
2013-04-06 11:05:00,60.0,40.0,-100.00,SSW,195,15.0,28.0,47,0.00,,,-99.99,,2013-04-06 16:05:00,
2013-04-06 11:17:00,61.0,41.0,-100.00,SSW,210,13.0,22.0,46,0.00,,,-99.99,,2013-04-06 16:17:00,
2013-04-06 11:23:00,62.0,42.0,-100.00,SW,220,14.0,26.0,46,0.00,,,-99.99,,2013-04-06 16:23:00,
2013-04-06 11:32:00,64.0,43.0,-100.00,SW,220,19.0,30.0,45,0.00,,,-99.99,,2013-04-06 16:32:00,
2013-04-06 11:42:00,64.0,43.0,-100.00,SW,220,19.0,30.0,45,0.00,,,-99.99,,2013-04-06 16:42:00,
2013-04-06 11:52:00,64.0,43.0,-100.00,SSW,210,14.0,27.0,45,0.00,,,-99.99,,2013-04-06 16:52:00,
2013-04-06 12:02:00,64.0,43.0,-100.00,SSW,210,14.0,27.0,45,0.00,,,-99.99,,2013-04-06 17:02:00,
2013-04-06 12:12:00,64.0,43.0,-100.00,SW,215,16.0,26.0,45,0.00,,,-99.99,,2013-04-06 17:12:00,
2013-04-06 12:22:00,63.0,42.0,-100.00,SW,230,18.0,28.0,46,0.00,,,-99.99,,2013-04-06 17:22:00,
2013-04-06 12:32:00,63.0,42.0,-100.00,WSW,245,16.0,24.0,46,0.00,,,-99.99,,2013-04-06 17:32:00,
2013-04-06 12:42:00,63.0,42.0,-100.00,WSW,245,16.0,24.0,46,0.00,,,-99.99,,2013-04-06 17:42:00,
2013-04-06 12:52:00,63.0,42.0,-100.00,WSW,240,14.0,26.0,46,0.00,,,-99.99,,2013-04-06 17:52:00,
2013-04-06 13:03:00,63.0,43.0,-100.00,WSW,245,17.0,29.0,47,0.00,,,-99.99,,2013-04-06 18:03:00,
2013-04-06 13:12:00,63.0,43.0,-100.00,SW,235,11.0,29.0,47,0.00,,,-99.99,,2013-04-06 18:12:00,
2013-04-06 13:23:00,63.0,43.0,-100.00,SW,235,11.0,29.0,47,0.00,,,-99.99,,2013-04-06 18:23:00,
2013-04-06 13:32:00,63.0,43.0,-100.00,WSW,245,14.0,22.0,47,0.00,,,-99.99,,2013-04-06 18:32:00,
2013-04-06 13:42:00,65.0,44.0,-100.00,SSW,210,13.0,24.0,45,0.00,,,-99.99,,2013-04-06 18:42:00,
2013-04-06 13:52:00,64.0,43.0,-100.00,SW,220,11.0,26.0,46,0.00,,,-99.99,,2013-04-06 18:52:00,
2013-04-06 14:02:00,64.0,43.0,-100.00,SW,220,11.0,26.0,46,0.00,,,-99.99,,2013-04-06 19:02:00,
2013-04-06 14:12:00,64.0,44.0,-100.00,SW,230,17.0,24.0,46,0.00,,,-99.99,,2013-04-06 19:12:00,
2013-04-06 14:22:00,65.0,44.0,-100.00,SW,230,14.0,24.0,46,0.00,,,-99.99,,2013-04-06 19:22:00,
2013-04-06 14:32:00,65.0,44.0,-100.00,SW,225,11.0,23.0,45,0.00,,,-99.99,,2013-04-06 19:32:00,
2013-04-06 14:42:00,65.0,44.0,-100.00,SW,225,11.0,23.0,45,0.00,,,-99.99,,2013-04-06 19:42:00,
2013-04-06 14:52:00,67.0,45.0,-100.00,SW,230,13.0,21.0,44,0.00,,,-99.99,,2013-04-06 19:52:00,
2013-04-06 15:03:00,67.0,45.0,-100.00,SW,230,13.0,21.0,44,0.00,,,-99.99,,2013-04-06 20:03:00,
2013-04-06 15:12:00,70.0,45.0,-100.00,West,260,15.0,23.0,41,0.00,,,-99.99,,2013-04-06 20:12:00,
2013-04-06 15:22:00,70.0,45.0,-100.00,West,260,15.0,23.0,41,0.00,,,-99.99,,2013-04-06 20:22:00,
2013-04-06 15:32:00,70.0,45.0,-100.00,West,260,15.0,23.0,41,0.00,,,-99.99,,2013-04-06 20:32:00,
2013-04-06 15:42:00,71.0,45.0,-100.00,WSW,250,17.0,26.0,39,0.00,,,-99.99,,2013-04-06 20:42:00,
2013-04-06 15:52:00,68.0,44.0,-100.00,SW,235,14.0,25.0,41,0.00,,,-99.99,,2013-04-06 20:52:00,
2013-04-06 16:02:00,68.0,44.0,-100.00,SW,235,14.0,25.0,41,0.00,,,-99.99,,2013-04-06 21:02:00,
2013-04-06 16:13:00,66.0,42.0,-100.00,WNW,285,19.0,28.0,41,0.00,,,-99.99,,2013-04-06 21:13:00,
2013-04-06 16:22:00,66.0,42.0,-100.00,WNW,285,19.0,28.0,41,0.00,,,-99.99,,2013-04-06 21:22:00,
2013-04-06 16:33:00,68.0,42.0,-100.00,West,265,19.0,25.0,38,0.00,,,-99.99,,2013-04-06 21:33:00,
2013-04-06 16:43:00,69.0,42.0,-100.00,West,260,14.0,27.0,36,0.00,,,-99.99,,2013-04-06 21:43:00,
2013-04-06 16:52:00,69.0,42.0,-100.00,West,260,14.0,27.0,36,0.00,,,-99.99,,2013-04-06 21:52:00,
2013-04-06 17:03:00,69.0,40.0,-100.00,West,275,21.0,30.0,34,0.00,,,-99.99,,2013-04-06 22:03:00,
2013-04-06 17:13:00,68.0,39.0,-100.00,WNW,300,18.0,27.0,35,0.00,,,-99.99,,2013-04-06 22:13:00,
2013-04-06 17:23:00,68.0,39.0,-100.00,WNW,300,18.0,27.0,35,0.00,,,-99.99,,2013-04-06 22:23:00,
2013-04-06 17:34:00,68.0,39.0,-100.00,West,275,14.0,23.0,34,0.00,,,-99.99,,2013-04-06 22:34:00,
2013-04-06 17:43:00,68.0,39.0,-100.00,West,280,17.0,24.0,34,0.00,,,-99.99,,2013-04-06 22:43:00,
2013-04-06 17:53:00,68.0,39.0,-100.00,West,280,22.0,29.0,35,0.00,,,-99.99,,2013-04-06 22:53:00,
2013-04-06 18:03:00,68.0,39.0,-100.00,West,280,22.0,29.0,35,0.00,,,-99.99,,2013-04-06 23:03:00,
2013-04-06 18:13:00,67.0,39.0,-100.00,West,280,17.0,27.0,36,0.00,,,-99.99,,2013-04-06 23:13:00,
2013-04-06 18:23:00,67.0,39.0,-100.00,WNW,295,16.0,26.0,35,0.00,,,-99.99,,2013-04-06 23:23:00,
2013-04-06 18:34:00,66.0,39.0,-100.00,WNW,300,17.0,24.0,36,0.00,,,-99.99,,2013-04-06 23:34:00,
2013-04-06 18:42:00,66.0,39.0,-100.00,WNW,300,17.0,24.0,36,0.00,,,-99.99,,2013-04-06 23:42:00,
2013-04-06 18:52:00,66.0,39.0,-100.00,WNW,300,15.0,22.0,36,0.00,,,-99.99,,2013-04-06 23:52:00,
2013-04-06 19:02:00,66.0,39.0,-100.00,WNW,300,15.0,21.0,37,0.00,,,-99.99,,2013-04-07 00:02:00,
2013-04-06 19:13:00,66.0,39.0,-100.00,WNW,300,15.0,21.0,37,0.00,,,-99.99,,2013-04-07 00:13:00,
2013-04-06 19:22:00,66.0,39.0,-100.00,WNW,300,10.0,16.0,37,0.00,,,-99.99,,2013-04-07 00:22:00,
2013-04-06 19:33:00,65.0,39.0,-100.00,WNW,295,14.0,20.0,37,0.00,,,-99.99,,2013-04-07 00:33:00,
2013-04-06 19:43:00,65.0,39.0,-100.00,WNW,295,14.0,20.0,37,0.00,,,-99.99,,2013-04-07 00:43:00,
2013-04-06 19:53:00,64.0,38.0,-100.00,NW,310,14.0,17.0,37,0.00,,,-99.99,,2013-04-07 00:53:00,
2013-04-06 20:02:00,64.0,38.0,-100.00,NW,310,14.0,17.0,37,0.00,,,-99.99,,2013-04-07 01:02:00,
2013-04-06 20:12:00,63.0,37.0,-100.00,NW,315,11.0,17.0,38,0.00,,,-99.99,,2013-04-07 01:12:00,
2013-04-06 20:23:00,62.0,37.0,-100.00,NW,315,9.0,14.0,38,0.00,,,-99.99,,2013-04-07 01:23:00,
2013-04-06 20:32:00,61.0,36.0,-100.00,NW,305,6.0,10.0,40,0.00,,,-99.99,,2013-04-07 01:32:00,
2013-04-06 20:42:00,61.0,36.0,-100.00,NW,305,6.0,10.0,40,0.00,,,-99.99,,2013-04-07 01:42:00,
2013-04-06 20:52:00,60.0,36.0,-100.00,NW,305,6.0,7.0,41,0.00,,,-99.99,,2013-04-07 01:52:00,
2013-04-06 21:03:00,60.0,36.0,-100.00,NW,305,6.0,7.0,41,0.00,,,-99.99,,2013-04-07 02:03:00,
2013-04-06 21:12:00,59.0,36.0,-100.00,NW,315,4.0,7.0,41,0.00,,,-99.99,,2013-04-07 02:12:00,
2013-04-06 21:23:00,59.0,36.0,-100.00,WNW,290,5.0,7.0,42,0.00,,,-99.99,,2013-04-07 02:23:00,
2013-04-06 21:32:00,58.0,36.0,-100.00,West,275,4.0,6.0,43,0.00,,,-99.99,,2013-04-07 02:32:00,
2013-04-06 21:42:00,58.0,36.0,-100.00,West,275,4.0,6.0,43,0.00,,,-99.99,,2013-04-07 02:42:00,
2013-04-06 21:52:00,57.0,36.0,-100.00,WNW,290,3.0,5.0,45,0.00,,,-99.99,,2013-04-07 02:52:00,
2013-04-06 22:02:00,57.0,36.0,-100.00,WNW,290,3.0,5.0,45,0.00,,,-99.99,,2013-04-07 03:02:00,
2013-04-06 22:12:00,55.0,36.0,-100.00,West,265,4.0,6.0,47,0.00,,,-99.99,,2013-04-07 03:12:00,
2013-04-06 22:22:00,55.0,36.0,-100.00,West,265,4.0,6.0,47,0.00,,,-99.99,,2013-04-07 03:22:00,
2013-04-06 22:34:00,56.0,36.0,-100.00,West,260,6.0,7.0,47,0.00,,,-99.99,,2013-04-07 03:34:00,
2013-04-06 22:43:00,56.0,36.0,-100.00,West,260,6.0,7.0,47,0.00,,,-99.99,,2013-04-07 03:43:00,
2013-04-06 22:53:00,55.0,36.0,-100.00,WSW,255,5.0,6.0,47,0.00,,,-99.99,,2013-04-07 03:53:00,
2013-04-06 23:03:00,55.0,36.0,-100.00,WSW,255,5.0,6.0,47,0.00,,,-99.99,,2013-04-07 04:03:00,
2013-04-06 23:13:00,55.0,36.0,-100.00,West,280,4.0,5.0,49,0.00,,,-99.99,,2013-04-07 04:13:00,
2013-04-06 23:23:00,55.0,36.0,-100.00,West,280,4.0,5.0,49,0.00,,,-99.99,,2013-04-07 04:23:00,
2013-04-06 23:32:00,54.0,36.0,-100.00,West,270,4.0,6.0,50,0.00,,,-99.99,,2013-04-07 04:32:00,
2013-04-06 23:43:00,54.0,36.0,-100.00,West,275,3.0,5.0,50,0.00,,,-99.99,,2013-04-07 04:43:00,
2013-04-06 23:52:00,53.0,36.0,-100.00,West,275,2.0,4.0,51,0.00,,,-99.99,,2013-04-07 04:52:00,